Location: Bukit Lungun
(2.6833°N, 113.9667°E)
Time: 10:58:59
(UTC+00:00)

deb Ariane - Pass Details

Date: 02 March 2021
Orbit: 443 x 35348 km, 6.7° (Epoch: 20 April)

Event Time Altitude Azimuth Distance (km) Brightness Sun altitude
Exits shadow 22:11:57 - 257° (WSW) 5,913 7.4 -6.3°
Reaches altitude 10° 22:16:16 10° 253° (WSW) 3,895 6.6 -5.3°
Maximum altitude 22:23:00 38° 184° (S) 980 4.2 -3.6°
Drops below altitude 10° 22:25:48 10° 111° (ESE) 1,612 6.9 -2.9°
Sets 22:27:26 0° 101° (E) 2,407 9.3 -2.5°
